Time,TemperatureF,DewpointF,PressureIn,WindDirection,WindDirectionDegrees,WindSpeedMPH,WindSpeedGustMPH,Humidity,HourlyPrecipIn,Conditions,Clouds,dailyrainin,SoftwareType,DateUTC
2013-07-13 00:02:00,74.0,70.9,29.90,NNE,29,0.0,0.0,90,0.00,,,0.39,Wunderground PWS Mod,2013-07-13 04:02:00,
2013-07-13 00:04:00,74.0,70.9,29.90,NNE,29,0.0,0.0,90,0.00,,,0.39,Wunderground PWS Mod,2013-07-13 04:04:00,
2013-07-13 00:08:00,73.9,70.8,29.89,NNE,29,0.0,0.0,90,0.00,,,0.39,Wunderground PWS Mod,2013-07-13 04:08:00,
2013-07-13 00:14:00,73.9,70.8,29.89,NNE,29,0.0,0.0,90,0.00,,,0.39,Wunderground PWS Mod,2013-07-13 04:14:00,
2013-07-13 00:20:00,73.7,70.9,29.89,NNE,29,0.0,0.0,91,0.00,,,0.39,Wunderground PWS Mod,2013-07-13 04:20:00,
2013-07-13 00:24:00,73.7,70.9,29.89,NNE,29,0.0,0.0,91,0.00,,,0.00,Wunderground PWS Mod,2013-07-13 04:24:00,
2013-07-13 00:30:00,73.5,70.7,29.89,NNE,29,0.0,0.0,91,0.00,,,0.00,Wunderground PWS Mod,2013-07-13 04:30:00,
2013-07-13 00:32:00,73.2,70.4,29.89,N/A,-737280,0.0,0.0,91,0.00,,,0.00,Wunderground PWS Mod,2013-07-13 04:32:00,
2013-07-13 00:36:00,73.5,70.7,29.89,NNE,29,0.0,0.0,91,0.00,,,0.00,Wunderground PWS Mod,2013-07-13 04:36:00,
2013-07-13 00:42:00,73.3,70.5,29.89,NNE,29,0.0,0.0,91,0.00,,,0.00,Wunderground PWS Mod,2013-07-13 04:42:00,
2013-07-13 00:48:00,73.2,70.4,29.89,NNE,29,0.0,0.0,91,0.00,,,0.00,Wunderground PWS Mod,2013-07-13 04:48:00,
2013-07-13 00:54:00,73.2,70.4,29.89,NNE,29,0.0,0.0,91,0.00,,,0.00,Wunderground PWS Mod,2013-07-13 04:54:00,
2013-07-13 01:00:00,73.2,70.7,29.89,NNE,29,0.0,0.0,92,0.00,,,0.00,Wunderground PWS Mod,2013-07-13 05:00:00,
2013-07-13 01:06:00,73.2,70.7,29.89,NNE,29,0.0,0.0,92,0.00,,,0.00,Wunderground PWS Mod,2013-07-13 05:06:00,
2013-07-13 01:12:00,73.0,70.5,29.89,NNE,29,0.0,0.0,92,0.00,,,0.00,Wunderground PWS Mod,2013-07-13 05:12:00,
2013-07-13 01:18:00,73.0,70.5,29.89,NNE,29,0.0,0.0,92,0.00,,,0.00,Wunderground PWS Mod,2013-07-13 05:18:00,
2013-07-13 01:24:00,73.0,70.5,29.89,NNE,29,0.0,0.0,92,0.00,,,0.00,Wunderground PWS Mod,2013-07-13 05:24:00,
2013-07-13 01:26:00,72.9,70.4,29.89,N/A,-737280,0.0,0.0,92,0.00,,,0.00,Wunderground PWS Mod,2013-07-13 05:26:00,
2013-07-13 01:30:00,73.0,70.5,29.89,NNE,29,0.0,0.0,92,0.00,,,0.00,Wunderground PWS Mod,2013-07-13 05:30:00,
2013-07-13 01:36:00,73.0,70.5,29.89,NNE,29,0.0,0.0,92,0.00,,,0.00,Wunderground PWS Mod,2013-07-13 05:36:00,
2013-07-13 01:42:00,73.0,70.5,29.89,NNE,29,0.0,0.0,92,0.00,,,0.00,Wunderground PWS Mod,2013-07-13 05:42:00,
2013-07-13 01:48:00,72.8,70.3,29.89,NNE,29,0.0,0.0,92,0.00,,,0.00,Wunderground PWS Mod,2013-07-13 05:48:00,
2013-07-13 01:54:00,72.8,70.7,29.89,NNE,29,0.0,0.0,93,0.00,,,0.00,Wunderground PWS Mod,2013-07-13 05:54:00,
2013-07-13 01:58:00,72.7,70.6,29.88,N/A,-737280,0.0,0.0,93,0.00,,,0.00,Wunderground PWS Mod,2013-07-13 05:58:00,
2013-07-13 02:00:00,72.8,70.7,29.89,NNE,29,0.0,0.0,93,0.00,,,0.00,Wunderground PWS Mod,2013-07-13 06:00:00,
2013-07-13 02:06:00,72.8,70.7,29.88,NNE,29,0.0,0.0,93,0.00,,,0.00,Wunderground PWS Mod,2013-07-13 06:06:00,
2013-07-13 02:12:00,72.7,70.6,29.88,NNE,29,0.0,0.0,93,0.00,,,0.00,Wunderground PWS Mod,2013-07-13 06:12:00,
2013-07-13 02:18:00,72.7,70.6,29.88,NNE,29,0.0,0.0,93,0.00,,,0.00,Wunderground PWS Mod,2013-07-13 06:18:00,
2013-07-13 02:24:00,72.7,70.6,29.88,NNE,29,0.0,0.0,93,0.00,,,0.00,Wunderground PWS Mod,2013-07-13 06:24:00,
2013-07-13 02:30:00,72.7,70.6,29.88,NNE,29,0.0,0.0,93,0.00,,,0.00,Wunderground PWS Mod,2013-07-13 06:30:00,
2013-07-13 02:36:00,72.5,70.4,29.87,NNE,29,0.0,0.0,93,0.00,,,0.00,Wunderground PWS Mod,2013-07-13 06:36:00,
2013-07-13 02:42:00,72.5,70.4,29.87,NNE,29,0.0,0.0,93,0.00,,,0.00,Wunderground PWS Mod,2013-07-13 06:42:00,
2013-07-13 02:48:00,72.5,70.4,29.87,NNE,29,0.0,0.0,93,0.00,,,0.00,Wunderground PWS Mod,2013-07-13 06:48:00,
2013-07-13 02:54:00,72.7,70.6,29.86,NNE,29,0.0,0.0,93,0.00,,,0.00,Wunderground PWS Mod,2013-07-13 06:54:00,
2013-07-13 03:00:00,72.8,70.7,29.86,NNE,29,0.0,0.0,93,0.00,,,0.00,Wunderground PWS Mod,2013-07-13 07:00:00,
2013-07-13 03:04:00,72.8,71.0,29.86,N/A,-737280,0.0,0.0,94,0.00,,,0.00,Wunderground PWS Mod,2013-07-13 07:04:00,
2013-07-13 03:06:00,72.8,70.7,29.86,NNE,29,0.0,0.0,93,0.00,,,0.00,Wunderground PWS Mod,2013-07-13 07:06:00,
2013-07-13 03:12:00,72.7,70.9,29.86,NNE,29,0.0,0.0,94,0.00,,,0.00,Wunderground PWS Mod,2013-07-13 07:12:00,
2013-07-13 03:18:00,72.7,70.9,29.86,NNE,29,0.0,0.0,94,0.00,,,0.00,Wunderground PWS Mod,2013-07-13 07:18:00,
2013-07-13 03:24:00,72.8,71.0,29.86,NNE,29,0.0,0.0,94,0.00,,,0.00,Wunderground PWS Mod,2013-07-13 07:24:00,
2013-07-13 03:30:00,72.8,71.0,29.86,NNE,29,0.0,0.0,94,0.00,,,0.00,Wunderground PWS Mod,2013-07-13 07:30:00,
2013-07-13 03:36:00,73.0,71.2,29.86,NNE,29,0.0,0.0,94,0.00,,,0.00,Wunderground PWS Mod,2013-07-13 07:36:00,
2013-07-13 03:38:00,72.8,71.0,29.86,N/A,-737280,0.0,0.0,94,0.00,,,0.00,Wunderground PWS Mod,2013-07-13 07:38:00,
2013-07-13 03:42:00,72.8,71.0,29.86,NNE,29,0.0,0.0,94,0.00,,,0.00,Wunderground PWS Mod,2013-07-13 07:42:00,
2013-07-13 03:48:00,72.8,71.0,29.86,NNE,29,0.0,0.0,94,0.00,,,0.00,Wunderground PWS Mod,2013-07-13 07:48:00,
2013-07-13 03:54:00,72.8,71.0,29.86,NNE,29,0.0,0.0,94,0.00,,,0.00,Wunderground PWS Mod,2013-07-13 07:54:00,
2013-07-13 04:00:00,72.8,71.0,29.86,NNE,29,0.0,0.0,94,0.00,,,0.00,Wunderground PWS Mod,2013-07-13 08:00:00,
2013-07-13 04:04:00,72.8,71.0,29.86,N/A,-737280,0.0,0.0,94,0.00,,,0.00,Wunderground PWS Mod,2013-07-13 08:04:00,
2013-07-13 04:06:00,72.8,71.0,29.86,NNE,29,0.0,0.0,94,0.00,,,0.00,Wunderground PWS Mod,2013-07-13 08:06:00,
2013-07-13 04:12:00,72.8,71.0,29.86,NNE,29,0.0,0.0,94,0.00,,,0.00,Wunderground PWS Mod,2013-07-13 08:12:00,
2013-07-13 04:18:00,72.8,71.0,29.86,NNE,29,0.0,0.0,94,0.00,,,0.00,Wunderground PWS Mod,2013-07-13 08:18:00,
2013-07-13 04:24:00,72.8,71.0,29.86,NNE,29,0.0,0.0,94,0.00,,,0.00,Wunderground PWS Mod,2013-07-13 08:24:00,
2013-07-13 04:30:00,72.7,70.9,29.86,N/A,-737280,0.0,0.0,94,0.00,,,0.00,Wunderground PWS Mod,2013-07-13 08:30:00,
2013-07-13 04:32:00,72.7,70.9,29.86,N/A,-737280,0.0,0.0,94,0.00,,,0.00,Wunderground PWS Mod,2013-07-13 08:32:00,
2013-07-13 04:40:00,72.7,70.9,29.86,NNE,29,0.0,0.0,94,0.00,,,0.00,Wunderground PWS Mod,2013-07-13 08:40:00,
2013-07-13 04:46:00,72.7,70.9,29.86,NNE,29,0.0,0.0,94,0.00,,,0.00,Wunderground PWS Mod,2013-07-13 08:46:00,
2013-07-13 04:52:00,72.7,70.9,29.86,NNE,29,0.0,0.0,94,0.00,,,0.00,Wunderground PWS Mod,2013-07-13 08:52:00,
2013-07-13 04:58:00,72.7,70.9,29.86,NNE,29,0.0,0.0,94,0.00,,,0.00,Wunderground PWS Mod,2013-07-13 08:58:00,
2013-07-13 05:02:00,72.7,70.9,29.86,N/A,-737280,0.0,0.0,94,0.00,,,0.00,Wunderground PWS Mod,2013-07-13 09:02:00,
2013-07-13 05:04:00,72.7,70.9,29.86,NNE,29,0.0,0.0,94,0.00,,,0.00,Wunderground PWS Mod,2013-07-13 09:04:00,
2013-07-13 05:10:00,72.7,70.9,29.86,NNE,29,0.0,0.0,94,0.00,,,0.00,Wunderground PWS Mod,2013-07-13 09:10:00,
2013-07-13 05:16:00,72.8,71.0,29.86,NNE,29,0.0,0.0,94,0.00,,,0.00,Wunderground PWS Mod,2013-07-13 09:16:00,
2013-07-13 05:22:00,72.7,70.9,29.86,NNE,29,0.0,0.0,94,0.00,,,0.00,Wunderground PWS Mod,2013-07-13 09:22:00,
2013-07-13 05:28:00,72.7,70.9,29.86,NNE,29,0.0,0.0,94,0.00,,,0.00,Wunderground PWS Mod,2013-07-13 09:28:00,
2013-07-13 05:32:00,72.7,70.9,29.86,N/A,-737280,0.0,0.0,94,0.00,,,0.00,Wunderground PWS Mod,2013-07-13 09:32:00,
2013-07-13 05:34:00,72.7,70.9,29.86,NNE,29,0.0,0.0,94,0.00,,,0.00,Wunderground PWS Mod,2013-07-13 09:34:00,
2013-07-13 05:40:00,72.7,71.2,29.86,NNE,29,0.0,0.0,95,0.00,,,0.00,Wunderground PWS Mod,2013-07-13 09:40:00,
2013-07-13 05:46:00,72.7,71.2,29.86,NNE,29,0.0,0.0,95,0.00,,,0.00,Wunderground PWS Mod,2013-07-13 09:46:00,
2013-07-13 05:52:00,72.7,70.9,29.86,NNE,29,0.0,0.0,94,0.00,,,0.00,Wunderground PWS Mod,2013-07-13 09:52:00,
2013-07-13 05:58:00,72.5,70.7,29.86,NNE,29,0.0,0.0,94,0.00,,,0.00,Wunderground PWS Mod,2013-07-13 09:58:00,
2013-07-13 06:04:00,72.5,71.0,29.86,NNE,29,0.0,0.0,95,0.00,,,0.00,Wunderground PWS Mod,2013-07-13 10:04:00,
2013-07-13 06:10:00,72.5,71.0,29.86,NNE,29,0.0,0.0,95,0.00,,,0.00,Wunderground PWS Mod,2013-07-13 10:10:00,
2013-07-13 06:12:00,72.5,71.0,29.86,N/A,-737280,0.0,0.0,95,0.00,,,0.00,Wunderground PWS Mod,2013-07-13 10:12:00,
2013-07-13 06:16:00,72.5,71.0,29.86,NNE,29,0.0,0.0,95,0.00,,,0.00,Wunderground PWS Mod,2013-07-13 10:16:00,
2013-07-13 06:22:00,72.5,71.0,29.86,NNE,29,0.0,0.0,95,0.00,,,0.00,Wunderground PWS Mod,2013-07-13 10:22:00,
2013-07-13 06:28:00,72.5,71.0,29.86,NNE,29,0.0,0.0,95,0.00,,,0.00,Wunderground PWS Mod,2013-07-13 10:28:00,
2013-07-13 06:34:00,72.5,71.0,29.86,NNE,29,0.0,0.0,95,0.00,,,0.00,Wunderground PWS Mod,2013-07-13 10:34:00,
2013-07-13 06:38:00,72.5,71.0,29.88,N/A,-737280,0.0,0.0,95,0.00,,,0.00,Wunderground PWS Mod,2013-07-13 10:38:00,
2013-07-13 06:40:00,72.5,71.0,29.87,NNE,29,0.0,0.0,95,0.00,,,0.00,Wunderground PWS Mod,2013-07-13 10:40:00,
2013-07-13 06:46:00,72.3,70.8,29.87,NNE,29,0.0,0.0,95,0.00,,,0.00,Wunderground PWS Mod,2013-07-13 10:46:00,
2013-07-13 06:52:00,72.3,70.8,29.88,NNE,29,0.0,0.0,95,0.00,,,0.00,Wunderground PWS Mod,2013-07-13 10:52:00,
2013-07-13 06:58:00,72.5,71.0,29.88,NNE,29,0.0,0.0,95,0.00,,,0.00,Wunderground PWS Mod,2013-07-13 10:58:00,
2013-07-13 07:04:00,72.5,71.0,29.88,NNE,29,0.0,0.0,95,0.00,,,0.00,Wunderground PWS Mod,2013-07-13 11:04:00,
2013-07-13 07:08:00,72.8,71.3,29.88,N/A,-737280,0.0,0.0,95,0.00,,,0.00,Wunderground PWS Mod,2013-07-13 11:08:00,
2013-07-13 07:10:00,72.5,71.0,29.88,NNE,29,0.0,0.0,95,0.00,,,0.00,Wunderground PWS Mod,2013-07-13 11:10:00,
2013-07-13 07:16:00,72.5,71.0,29.88,NNE,29,0.0,0.0,95,0.00,,,0.00,Wunderground PWS Mod,2013-07-13 11:16:00,
2013-07-13 07:22:00,72.7,71.2,29.88,NNE,29,0.0,0.0,95,0.00,,,0.00,Wunderground PWS Mod,2013-07-13 11:22:00,
2013-07-13 07:28:00,72.8,71.3,29.88,NNE,29,0.0,0.0,95,0.00,,,0.00,Wunderground PWS Mod,2013-07-13 11:28:00,
2013-07-13 07:34:00,73.0,71.5,29.88,NNE,29,0.0,0.0,95,0.00,,,0.00,Wunderground PWS Mod,2013-07-13 11:34:00,
2013-07-13 07:40:00,73.3,71.8,29.88,NNE,29,0.0,0.0,95,0.00,,,0.00,Wunderground PWS Mod,2013-07-13 11:40:00,
2013-07-13 07:42:00,74.3,72.8,29.88,N/A,-737280,0.0,0.0,95,0.00,,,0.00,Wunderground PWS Mod,2013-07-13 11:42:00,
2013-07-13 07:46:00,73.5,72.0,29.88,NNE,29,0.0,0.0,95,0.00,,,0.00,Wunderground PWS Mod,2013-07-13 11:46:00,
2013-07-13 07:52:00,73.7,72.2,29.88,NNE,29,0.0,0.0,95,0.00,,,0.00,Wunderground PWS Mod,2013-07-13 11:52:00,
2013-07-13 07:58:00,73.9,72.4,29.88,NNE,29,0.0,0.0,95,0.00,,,0.00,Wunderground PWS Mod,2013-07-13 11:58:00,
2013-07-13 08:04:00,74.4,72.9,29.88,NNE,29,0.0,0.0,95,0.00,,,0.00,Wunderground PWS Mod,2013-07-13 12:04:00,
2013-07-13 08:08:00,76.3,74.8,29.89,N/A,-737280,0.0,0.0,95,0.00,,,0.00,Wunderground PWS Mod,2013-07-13 12:08:00,
2013-07-13 08:10:00,74.7,73.2,29.88,NNE,29,0.0,0.0,95,0.00,,,0.00,Wunderground PWS Mod,2013-07-13 12:10:00,
2013-07-13 08:16:00,75.3,73.8,29.88,NNE,29,0.0,1.0,95,0.00,,,0.00,Wunderground PWS Mod,2013-07-13 12:16:00,
2013-07-13 08:22:00,75.8,74.3,29.89,NNE,29,0.0,0.0,95,0.00,,,0.00,Wunderground PWS Mod,2013-07-13 12:22:00,
2013-07-13 08:28:00,76.3,74.8,29.89,NNE,29,0.0,0.0,95,0.00,,,0.00,Wunderground PWS Mod,2013-07-13 12:28:00,
2013-07-13 08:34:00,76.7,75.2,29.89,NNE,29,0.0,0.0,95,0.00,,,0.00,Wunderground PWS Mod,2013-07-13 12:34:00,
2013-07-13 08:38:00,78.8,76.9,29.89,N/A,-737280,0.0,0.0,94,0.00,,,0.00,Wunderground PWS Mod,2013-07-13 12:38:00,
2013-07-13 08:40:00,77.0,75.5,29.89,North,360,0.0,0.0,95,0.00,,,0.00,Wunderground PWS Mod,2013-07-13 12:40:00,
2013-07-13 08:46:00,77.6,76.1,29.89,North,360,0.0,0.0,95,0.00,,,0.00,Wunderground PWS Mod,2013-07-13 12:46:00,
2013-07-13 08:52:00,78.1,76.6,29.89,North,350,0.0,0.0,95,0.00,,,0.00,Wunderground PWS Mod,2013-07-13 12:52:00,
2013-07-13 08:58:00,78.6,76.7,29.89,North,350,0.0,0.0,94,0.00,,,0.00,Wunderground PWS Mod,2013-07-13 12:58:00,
2013-07-13 09:04:00,79.2,77.3,29.89,NW,313,0.0,0.0,94,0.00,,,0.00,Wunderground PWS Mod,2013-07-13 13:04:00,
2013-07-13 09:08:00,81.4,76.5,29.90,N/A,-737280,0.0,0.0,85,0.00,,,0.00,Wunderground PWS Mod,2013-07-13 13:08:00,
2013-07-13 09:10:00,79.6,77.1,29.89,WSW,258,0.0,0.0,92,0.00,,,0.00,Wunderground PWS Mod,2013-07-13 13:10:00,
2013-07-13 09:16:00,80.1,76.9,29.89,West,266,0.0,0.0,90,0.00,,,0.00,Wunderground PWS Mod,2013-07-13 13:16:00,
2013-07-13 09:22:00,80.5,76.3,29.90,SSW,199,0.0,1.0,87,0.00,,,0.00,Wunderground PWS Mod,2013-07-13 13:22:00,
2013-07-13 09:28:00,81.2,76.3,29.90,South,190,0.0,0.0,85,0.00,,,0.00,Wunderground PWS Mod,2013-07-13 13:28:00,
2013-07-13 09:34:00,82.2,76.9,29.90,South,191,0.0,0.0,84,0.00,,,0.00,Wunderground PWS Mod,2013-07-13 13:34:00,
2013-07-13 09:40:00,83.0,76.2,29.90,South,191,0.0,0.0,80,0.00,,,0.00,Wunderground PWS Mod,2013-07-13 13:40:00,
2013-07-13 09:46:00,83.4,75.8,29.90,South,191,0.0,1.0,78,0.00,,,0.00,Wunderground PWS Mod,2013-07-13 13:46:00,
2013-07-13 09:52:00,84.1,76.1,29.90,South,191,0.0,0.0,77,0.00,,,0.00,Wunderground PWS Mod,2013-07-13 13:52:00,
2013-07-13 09:58:00,84.3,75.5,29.90,South,191,0.0,0.0,75,0.00,,,0.00,Wunderground PWS Mod,2013-07-13 13:58:00,
2013-07-13 10:04:00,84.1,75.3,29.90,SW,215,0.0,0.0,75,0.00,,,0.00,Wunderground PWS Mod,2013-07-13 14:04:00,
2013-07-13 10:08:00,86.7,75.3,29.90,N/A,-737280,0.0,0.0,69,0.00,,,0.00,Wunderground PWS Mod,2013-07-13 14:08:00,
2013-07-13 10:10:00,84.7,75.9,29.90,SW,215,0.0,1.0,75,0.00,,,0.00,Wunderground PWS Mod,2013-07-13 14:10:00,
2013-07-13 10:16:00,84.7,75.1,29.90,SW,230,0.0,1.0,73,0.00,,,0.00,Wunderground PWS Mod,2013-07-13 14:16:00,
2013-07-13 10:22:00,85.9,75.8,29.90,SE,130,0.0,1.0,72,0.00,,,0.00,Wunderground PWS Mod,2013-07-13 14:22:00,
2013-07-13 10:28:00,86.5,76.0,29.90,SW,228,0.0,1.0,71,0.00,,,0.00,Wunderground PWS Mod,2013-07-13 14:28:00,
2013-07-13 10:34:00,87.0,76.0,29.90,SSW,206,0.0,1.0,70,0.00,,,0.00,Wunderground PWS Mod,2013-07-13 14:34:00,
2013-07-13 10:40:00,86.7,74.0,29.89,SSW,213,0.0,5.0,66,0.00,,,0.00,Wunderground PWS Mod,2013-07-13 14:40:00,
2013-07-13 10:42:00,88.4,75.6,29.90,South,180,0.0,1.0,66,0.00,,,0.00,Wunderground PWS Mod,2013-07-13 14:42:00,
2013-07-13 10:46:00,86.5,75.5,29.89,SW,217,0.0,2.0,70,0.00,,,0.00,Wunderground PWS Mod,2013-07-13 14:46:00,
2013-07-13 10:52:00,87.2,75.3,29.90,South,189,0.0,3.0,68,0.00,,,0.00,Wunderground PWS Mod,2013-07-13 14:52:00,
2013-07-13 10:58:00,88.0,75.7,29.90,West,276,0.0,2.0,67,0.00,,,0.00,Wunderground PWS Mod,2013-07-13 14:58:00,
2013-07-13 11:04:00,88.4,75.6,29.90,South,180,0.0,3.0,66,0.00,,,0.00,Wunderground PWS Mod,2013-07-13 15:04:00,
2013-07-13 11:10:00,87.4,74.6,29.90,SSW,211,1.0,5.0,66,0.00,,,0.00,Wunderground PWS Mod,2013-07-13 15:10:00,
2013-07-13 11:16:00,84.9,74.4,29.90,SE,134,1.0,5.0,71,0.00,,,0.01,Wunderground PWS Mod,2013-07-13 15:16:00,
2013-07-13 11:22:00,82.0,74.1,29.91,SE,136,1.0,1.0,77,0.46,,,0.05,Wunderground PWS Mod,2013-07-13 15:22:00,
2013-07-13 11:28:00,80.7,73.6,29.91,SE,136,0.0,0.0,79,0.11,,,0.06,Wunderground PWS Mod,2013-07-13 15:28:00,
2013-07-13 11:34:00,80.3,75.0,29.91,SE,136,0.0,0.0,84,0.05,,,0.06,Wunderground PWS Mod,2013-07-13 15:34:00,
2013-07-13 11:40:00,81.4,77.2,29.91,SE,136,0.0,0.0,87,0.04,,,0.06,Wunderground PWS Mod,2013-07-13 15:40:00,
2013-07-13 11:42:00,83.3,79.0,29.91,N/A,-737280,0.0,0.0,87,0.07,,,0.07,Wunderground PWS Mod,2013-07-13 15:42:00,
2013-07-13 11:46:00,82.4,78.1,29.91,SE,136,0.0,0.0,87,0.00,,,0.06,Wunderground PWS Mod,2013-07-13 15:46:00,
2013-07-13 11:52:00,82.8,78.2,29.91,SE,136,0.0,0.0,86,0.00,,,0.06,Wunderground PWS Mod,2013-07-13 15:52:00,
2013-07-13 11:58:00,83.0,78.0,29.91,SE,136,0.0,0.0,85,0.00,,,0.06,Wunderground PWS Mod,2013-07-13 15:58:00,
2013-07-13 12:04:00,83.2,78.9,29.91,SE,136,0.0,0.0,87,0.00,,,0.07,Wunderground PWS Mod,2013-07-13 16:04:00,
2013-07-13 12:10:00,82.0,77.0,29.91,SSE,164,0.0,1.0,85,0.36,,,0.09,Wunderground PWS Mod,2013-07-13 16:10:00,
2013-07-13 12:16:00,81.1,76.5,29.91,ESE,109,0.0,0.0,86,0.09,,,0.09,Wunderground PWS Mod,2013-07-13 16:16:00,
2013-07-13 12:24:00,80.7,76.5,29.91,ESE,109,0.0,0.0,87,0.05,,,0.09,Wunderground PWS Mod,2013-07-13 16:24:00,
2013-07-13 12:30:00,81.8,78.2,29.91,ESE,109,0.0,0.0,89,0.05,,,0.10,Wunderground PWS Mod,2013-07-13 16:30:00,
2013-07-13 12:36:00,81.2,76.3,29.91,SSW,192,0.0,3.0,85,0.05,,,0.10,Wunderground PWS Mod,2013-07-13 16:36:00,
2013-07-13 12:42:00,79.6,74.0,29.91,SSE,156,0.0,1.0,83,0.15,,,0.12,Wunderground PWS Mod,2013-07-13 16:42:00,
2013-07-13 12:48:00,78.1,73.2,29.91,SW,229,0.0,0.0,85,0.23,,,0.14,Wunderground PWS Mod,2013-07-13 16:48:00,
2013-07-13 12:54:00,77.4,73.2,29.91,SW,229,0.0,0.0,87,0.07,,,0.14,Wunderground PWS Mod,2013-07-13 16:54:00,
2013-07-13 13:00:00,77.2,73.7,29.91,SW,232,0.0,1.0,89,0.04,,,0.14,Wunderground PWS Mod,2013-07-13 17:00:00,
2013-07-13 13:06:00,76.7,73.2,29.93,SW,236,0.0,1.0,89,0.00,,,0.15,Wunderground PWS Mod,2013-07-13 17:06:00,
2013-07-13 13:12:00,76.5,73.3,29.93,SW,236,0.0,0.0,90,0.29,,,0.18,Wunderground PWS Mod,2013-07-13 17:12:00,
2013-07-13 13:18:00,76.0,72.9,29.93,WSW,237,0.0,0.0,90,0.50,,,0.21,Wunderground PWS Mod,2013-07-13 17:18:00,
2013-07-13 13:24:00,76.0,72.9,29.91,WSW,237,0.0,0.0,90,0.13,,,0.22,Wunderground PWS Mod,2013-07-13 17:24:00,
2013-07-13 13:30:00,76.1,73.3,29.91,WSW,237,0.0,0.0,91,0.07,,,0.22,Wunderground PWS Mod,2013-07-13 17:30:00,
2013-07-13 13:36:00,76.3,73.8,29.90,WSW,237,0.0,0.0,92,0.04,,,0.22,Wunderground PWS Mod,2013-07-13 17:36:00,
2013-07-13 13:42:00,76.8,74.3,29.90,WSW,237,0.0,0.0,92,0.00,,,0.22,Wunderground PWS Mod,2013-07-13 17:42:00,
2013-07-13 13:44:00,80.5,77.6,29.90,N/A,-737280,0.0,0.0,91,0.07,,,0.22,Wunderground PWS Mod,2013-07-13 17:44:00,
2013-07-13 13:48:00,77.6,75.4,29.90,WSW,237,0.0,0.0,93,0.00,,,0.22,Wunderground PWS Mod,2013-07-13 17:48:00,
2013-07-13 13:54:00,78.8,76.6,29.90,WSW,237,0.0,0.0,93,0.00,,,0.22,Wunderground PWS Mod,2013-07-13 17:54:00,
2013-07-13 14:00:00,80.1,77.6,29.90,WSW,237,0.0,0.0,92,0.00,,,0.22,Wunderground PWS Mod,2013-07-13 18:00:00,
2013-07-13 14:06:00,80.5,77.6,29.90,WSW,237,0.0,0.0,91,0.00,,,0.22,Wunderground PWS Mod,2013-07-13 18:06:00,
2013-07-13 14:12:00,80.1,76.6,29.90,WSW,237,0.0,0.0,89,0.00,,,0.22,Wunderground PWS Mod,2013-07-13 18:12:00,
2013-07-13 14:18:00,80.3,76.8,29.90,WSW,237,0.0,0.0,89,0.00,,,0.22,Wunderground PWS Mod,2013-07-13 18:18:00,
2013-07-13 14:24:00,80.3,76.8,29.89,WSW,237,0.0,0.0,89,0.00,,,0.22,Wunderground PWS Mod,2013-07-13 18:24:00,
2013-07-13 14:30:00,80.7,76.8,29.89,WSW,237,0.0,0.0,88,0.00,,,0.22,Wunderground PWS Mod,2013-07-13 18:30:00,
2013-07-13 14:36:00,80.9,76.7,29.89,South,191,0.0,1.0,87,0.00,,,0.22,Wunderground PWS Mod,2013-07-13 18:36:00,
2013-07-13 14:42:00,81.8,76.8,29.89,SW,235,0.0,1.0,85,0.00,,,0.22,Wunderground PWS Mod,2013-07-13 18:42:00,
2013-07-13 14:48:00,81.4,74.6,29.89,SW,221,1.0,4.0,80,0.00,,,0.22,Wunderground PWS Mod,2013-07-13 18:48:00,
2013-07-13 14:54:00,81.4,75.4,29.90,SSE,163,1.0,1.0,82,0.00,,,0.22,Wunderground PWS Mod,2013-07-13 18:54:00,
2013-07-13 15:00:00,80.7,74.7,29.90,SSE,163,0.0,0.0,82,0.00,,,0.22,Wunderground PWS Mod,2013-07-13 19:00:00,
2013-07-13 15:06:00,80.3,74.7,29.90,SSE,163,0.0,0.0,83,0.00,,,0.22,Wunderground PWS Mod,2013-07-13 19:06:00,
2013-07-13 15:12:00,80.1,74.8,29.90,SSE,163,0.0,0.0,84,0.00,,,0.22,Wunderground PWS Mod,2013-07-13 19:12:00,
2013-07-13 15:16:00,77.0,73.2,29.90,N/A,-737280,0.0,0.0,88,0.03,,,0.25,Wunderground PWS Mod,2013-07-13 19:16:00,
2013-07-13 15:18:00,79.8,74.9,29.90,SSE,163,0.0,0.0,85,0.00,,,0.22,Wunderground PWS Mod,2013-07-13 19:18:00,
2013-07-13 15:24:00,78.5,73.3,29.90,SSE,163,0.0,0.0,84,0.00,,,0.22,Wunderground PWS Mod,2013-07-13 19:24:00,
2013-07-13 15:30:00,77.7,73.2,29.90,SSE,163,0.0,0.0,86,0.26,,,0.24,Wunderground PWS Mod,2013-07-13 19:30:00,
2013-07-13 15:36:00,77.2,73.4,29.90,SE,135,0.0,0.0,88,0.09,,,0.25,Wunderground PWS Mod,2013-07-13 19:36:00,
2013-07-13 15:42:00,76.8,73.3,29.90,SE,135,0.0,0.0,89,0.05,,,0.25,Wunderground PWS Mod,2013-07-13 19:42:00,
2013-07-13 15:48:00,76.7,73.2,29.90,SE,135,0.0,0.0,89,0.00,,,0.25,Wunderground PWS Mod,2013-07-13 19:48:00,
2013-07-13 15:54:00,76.5,73.3,29.90,SE,135,0.0,0.0,90,0.00,,,0.25,Wunderground PWS Mod,2013-07-13 19:54:00,
2013-07-13 16:00:00,76.3,73.1,29.90,SE,135,0.0,0.0,90,0.00,,,0.25,Wunderground PWS Mod,2013-07-13 20:00:00,
2013-07-13 16:08:00,76.3,73.5,29.91,SE,128,0.0,0.0,91,0.00,,,0.26,Wunderground PWS Mod,2013-07-13 20:08:00,
2013-07-13 16:14:00,76.0,73.2,29.91,NNE,20,0.0,3.0,91,0.72,,,0.28,Wunderground PWS Mod,2013-07-13 20:14:00,
2013-07-13 16:20:00,75.8,73.0,29.91,ESE,103,1.0,1.0,91,0.11,,,0.29,Wunderground PWS Mod,2013-07-13 20:20:00,
2013-07-13 16:26:00,75.6,72.8,29.91,NE,34,0.0,1.0,91,0.05,,,0.29,Wunderground PWS Mod,2013-07-13 20:26:00,
2013-07-13 16:32:00,75.4,72.9,29.91,NW,319,0.0,1.0,92,0.00,,,0.29,Wunderground PWS Mod,2013-07-13 20:32:00,
2013-07-13 16:38:00,75.4,72.9,29.91,NW,324,0.0,1.0,92,0.00,,,0.29,Wunderground PWS Mod,2013-07-13 20:38:00,
2013-07-13 16:44:00,75.6,73.1,29.91,NNE,15,0.0,2.0,92,0.00,,,0.29,Wunderground PWS Mod,2013-07-13 20:44:00,
2013-07-13 16:48:00,76.0,73.5,29.89,N/A,-737280,0.0,0.0,92,0.03,,,0.29,Wunderground PWS Mod,2013-07-13 20:48:00,
2013-07-13 16:50:00,75.6,73.1,29.91,NNE,22,0.0,1.0,92,0.00,,,0.29,Wunderground PWS Mod,2013-07-13 20:50:00,
2013-07-13 16:56:00,75.8,73.3,29.90,ENE,71,0.0,0.0,92,0.00,,,0.29,Wunderground PWS Mod,2013-07-13 20:56:00,
2013-07-13 17:02:00,76.0,73.5,29.90,ENE,71,0.0,0.0,92,0.00,,,0.29,Wunderground PWS Mod,2013-07-13 21:02:00,
2013-07-13 17:08:00,76.0,73.5,29.89,ENE,71,0.0,0.0,92,0.00,,,0.29,Wunderground PWS Mod,2013-07-13 21:08:00,
2013-07-13 17:14:00,76.0,73.5,29.89,ENE,71,0.0,0.0,92,0.00,,,0.29,Wunderground PWS Mod,2013-07-13 21:14:00,
2013-07-13 17:20:00,75.8,73.3,29.89,ENE,71,0.0,0.0,92,0.00,,,0.30,Wunderground PWS Mod,2013-07-13 21:20:00,
2013-07-13 17:26:00,75.8,73.3,29.90,ENE,71,0.0,0.0,92,0.00,,,0.30,Wunderground PWS Mod,2013-07-13 21:26:00,
2013-07-13 17:32:00,76.0,73.5,29.90,ENE,71,0.0,0.0,92,0.17,,,0.32,Wunderground PWS Mod,2013-07-13 21:32:00,
2013-07-13 17:38:00,76.0,73.5,29.89,ENE,71,0.0,0.0,92,0.12,,,0.33,Wunderground PWS Mod,2013-07-13 21:38:00,
2013-07-13 17:40:00,76.7,74.2,29.88,N/A,-737280,0.0,0.0,92,0.05,,,0.34,Wunderground PWS Mod,2013-07-13 21:40:00,
2013-07-13 17:44:00,76.3,73.8,29.89,ENE,71,0.0,0.0,92,0.06,,,0.33,Wunderground PWS Mod,2013-07-13 21:44:00,
2013-07-13 17:50:00,76.3,73.8,29.89,NNE,19,0.0,3.0,92,0.04,,,0.33,Wunderground PWS Mod,2013-07-13 21:50:00,
2013-07-13 17:56:00,76.5,74.0,29.88,NNE,19,0.0,0.0,92,0.00,,,0.33,Wunderground PWS Mod,2013-07-13 21:56:00,
2013-07-13 18:02:00,76.7,74.2,29.88,NE,46,0.0,0.0,92,0.00,,,0.34,Wunderground PWS Mod,2013-07-13 22:02:00,
2013-07-13 18:06:00,77.4,74.2,29.88,N/A,-737280,0.0,0.0,90,0.03,,,0.34,Wunderground PWS Mod,2013-07-13 22:06:00,
2013-07-13 18:08:00,76.8,74.3,29.88,ESE,103,0.0,1.0,92,0.00,,,0.34,Wunderground PWS Mod,2013-07-13 22:08:00,
2013-07-13 18:14:00,77.2,74.4,29.88,East,88,0.0,0.0,91,0.00,,,0.34,Wunderground PWS Mod,2013-07-13 22:14:00,
2013-07-13 18:20:00,77.2,74.4,29.88,SSE,153,0.0,0.0,91,0.00,,,0.34,Wunderground PWS Mod,2013-07-13 22:20:00,
2013-07-13 18:26:00,77.4,74.2,29.88,ESE,104,0.0,0.0,90,0.00,,,0.34,Wunderground PWS Mod,2013-07-13 22:26:00,
2013-07-13 18:32:00,77.6,74.1,29.88,East,84,0.0,0.0,89,0.00,,,0.34,Wunderground PWS Mod,2013-07-13 22:32:00,
2013-07-13 18:38:00,77.4,73.9,29.89,NNE,26,0.0,0.0,89,0.00,,,0.34,Wunderground PWS Mod,2013-07-13 22:38:00,
2013-07-13 18:42:00,77.4,74.2,29.89,N/A,-737280,0.0,0.0,90,0.00,,,0.34,Wunderground PWS Mod,2013-07-13 22:42:00,
2013-07-13 18:44:00,77.4,73.9,29.89,NNE,26,0.0,0.0,89,0.00,,,0.34,Wunderground PWS Mod,2013-07-13 22:44:00,
2013-07-13 18:50:00,77.4,74.2,29.89,NNE,26,0.0,0.0,90,0.00,,,0.34,Wunderground PWS Mod,2013-07-13 22:50:00,
2013-07-13 18:56:00,77.4,74.2,29.89,NNE,26,0.0,0.0,90,0.00,,,0.34,Wunderground PWS Mod,2013-07-13 22:56:00,
2013-07-13 19:02:00,77.4,74.2,29.89,NNE,26,0.0,0.0,90,0.00,,,0.34,Wunderground PWS Mod,2013-07-13 23:02:00,
2013-07-13 19:08:00,77.2,74.0,29.89,East,84,0.0,1.0,90,0.00,,,0.34,Wunderground PWS Mod,2013-07-13 23:08:00,
2013-07-13 19:10:00,76.5,73.7,29.89,N/A,-737280,0.0,0.0,91,0.00,,,0.34,Wunderground PWS Mod,2013-07-13 23:10:00,
2013-07-13 19:14:00,77.0,73.8,29.89,NNE,19,0.0,0.0,90,0.00,,,0.34,Wunderground PWS Mod,2013-07-13 23:14:00,
2013-07-13 19:20:00,76.8,73.6,29.89,NNE,19,0.0,0.0,90,0.00,,,0.34,Wunderground PWS Mod,2013-07-13 23:20:00,
2013-07-13 19:26:00,76.8,74.0,29.89,NNE,19,0.0,0.0,91,0.00,,,0.34,Wunderground PWS Mod,2013-07-13 23:26:00,
2013-07-13 19:32:00,76.5,73.7,29.89,ESE,105,0.0,2.0,91,0.00,,,0.34,Wunderground PWS Mod,2013-07-13 23:32:00,
2013-07-13 19:36:00,75.6,73.1,29.92,East,90,0.0,1.0,92,0.00,,,0.34,Wunderground PWS Mod,2013-07-13 23:36:00,
2013-07-13 19:38:00,76.3,73.5,29.91,NW,326,0.0,2.0,91,0.00,,,0.34,Wunderground PWS Mod,2013-07-13 23:38:00,
2013-07-13 19:44:00,76.0,73.2,29.91,NNW,331,0.0,1.0,91,0.00,,,0.34,Wunderground PWS Mod,2013-07-13 23:44:00,
2013-07-13 19:50:00,75.8,73.0,29.91,NNW,331,0.0,0.0,91,0.00,,,0.34,Wunderground PWS Mod,2013-07-13 23:50:00,
2013-07-13 19:56:00,75.6,73.1,29.92,ESE,112,0.0,2.0,92,0.00,,,0.34,Wunderground PWS Mod,2013-07-13 23:56:00,
2013-07-13 20:02:00,75.4,72.9,29.92,East,98,0.0,0.0,92,0.00,,,0.34,Wunderground PWS Mod,2013-07-14 00:02:00,
2013-07-13 20:06:00,74.7,72.2,29.92,N/A,-737280,0.0,0.0,92,0.00,,,0.34,Wunderground PWS Mod,2013-07-14 00:06:00,
2013-07-13 20:08:00,75.3,72.8,29.92,North,9,0.0,2.0,92,0.00,,,0.34,Wunderground PWS Mod,2013-07-14 00:08:00,
2013-07-13 20:14:00,75.1,72.6,29.92,ENE,70,0.0,0.0,92,0.00,,,0.34,Wunderground PWS Mod,2013-07-14 00:14:00,
2013-07-13 20:20:00,74.9,72.4,29.92,WSW,255,0.0,0.0,92,0.00,,,0.34,Wunderground PWS Mod,2013-07-14 00:20:00,
2013-07-13 20:26:00,74.7,72.2,29.92,WSW,255,0.0,0.0,92,0.00,,,0.34,Wunderground PWS Mod,2013-07-14 00:26:00,
2013-07-13 20:32:00,74.6,72.1,29.92,WSW,255,0.0,0.0,92,0.00,,,0.34,Wunderground PWS Mod,2013-07-14 00:32:00,
2013-07-13 20:34:00,74.2,71.7,29.91,N/A,-737280,0.0,0.0,92,0.00,,,0.34,Wunderground PWS Mod,2013-07-14 00:34:00,
2013-07-13 20:38:00,74.4,71.9,29.91,WSW,255,0.0,0.0,92,0.00,,,0.34,Wunderground PWS Mod,2013-07-14 00:38:00,
2013-07-13 20:44:00,74.2,71.7,29.91,WSW,256,0.0,1.0,92,0.00,,,0.34,Wunderground PWS Mod,2013-07-14 00:44:00,
2013-07-13 20:50:00,74.2,71.7,29.91,WSW,256,0.0,0.0,92,0.00,,,0.34,Wunderground PWS Mod,2013-07-14 00:50:00,
2013-07-13 20:56:00,74.0,71.5,29.91,WSW,256,0.0,0.0,92,0.00,,,0.34,Wunderground PWS Mod,2013-07-14 00:56:00,
2013-07-13 21:02:00,74.0,71.5,29.91,WSW,256,0.0,0.0,92,0.00,,,0.34,Wunderground PWS Mod,2013-07-14 01:02:00,
2013-07-13 21:08:00,73.9,71.7,29.93,WSW,256,0.0,0.0,93,0.00,,,0.34,Wunderground PWS Mod,2013-07-14 01:08:00,
2013-07-13 21:14:00,73.9,71.7,29.93,WSW,256,0.0,0.0,93,0.00,,,0.34,Wunderground PWS Mod,2013-07-14 01:14:00,
2013-07-13 21:18:00,73.7,71.5,29.94,N/A,-737280,0.0,0.0,93,0.00,,,0.34,Wunderground PWS Mod,2013-07-14 01:18:00,
2013-07-13 21:20:00,73.9,71.7,29.93,WSW,256,0.0,1.0,93,0.00,,,0.34,Wunderground PWS Mod,2013-07-14 01:20:00,
2013-07-13 21:26:00,73.9,71.7,29.94,ESE,113,0.0,0.0,93,0.00,,,0.34,Wunderground PWS Mod,2013-07-14 01:26:00,
2013-07-13 21:32:00,73.9,71.7,29.94,ESE,113,0.0,0.0,93,0.00,,,0.34,Wunderground PWS Mod,2013-07-14 01:32:00,
2013-07-13 21:38:00,73.7,71.5,29.94,ESE,113,0.0,0.0,93,0.00,,,0.34,Wunderground PWS Mod,2013-07-14 01:38:00,
2013-07-13 21:44:00,73.7,71.5,29.94,SE,132,0.0,0.0,93,0.00,,,0.34,Wunderground PWS Mod,2013-07-14 01:44:00,
2013-07-13 21:46:00,73.9,72.1,29.94,N/A,-737280,0.0,0.0,94,0.01,,,0.35,Wunderground PWS Mod,2013-07-14 01:46:00,
2013-07-13 21:50:00,73.9,71.7,29.94,SE,132,0.0,0.0,93,0.00,,,0.34,Wunderground PWS Mod,2013-07-14 01:50:00,
2013-07-13 21:56:00,73.9,71.7,29.94,NNE,19,0.0,0.0,93,0.00,,,0.34,Wunderground PWS Mod,2013-07-14 01:56:00,
2013-07-13 22:02:00,73.9,71.7,29.94,NNE,19,0.0,0.0,93,0.00,,,0.34,Wunderground PWS Mod,2013-07-14 02:02:00,
2013-07-13 22:08:00,73.9,72.1,29.94,NNE,19,0.0,0.0,94,0.00,,,0.35,Wunderground PWS Mod,2013-07-14 02:08:00,
2013-07-13 22:14:00,73.9,72.1,29.94,NNE,19,0.0,0.0,94,0.00,,,0.35,Wunderground PWS Mod,2013-07-14 02:14:00,
2013-07-13 22:16:00,73.9,72.1,29.94,N/A,-737280,0.0,0.0,94,0.01,,,0.35,Wunderground PWS Mod,2013-07-14 02:16:00,
2013-07-13 22:20:00,73.9,72.1,29.94,NNE,19,0.0,0.0,94,0.00,,,0.35,Wunderground PWS Mod,2013-07-14 02:20:00,
2013-07-13 22:26:00,73.9,72.1,29.94,NNE,19,0.0,0.0,94,0.00,,,0.35,Wunderground PWS Mod,2013-07-14 02:26:00,
2013-07-13 22:32:00,73.9,72.1,29.94,NNE,19,0.0,0.0,94,0.00,,,0.35,Wunderground PWS Mod,2013-07-14 02:32:00,
2013-07-13 22:38:00,73.9,72.1,29.94,NE,38,0.0,0.0,94,0.00,,,0.35,Wunderground PWS Mod,2013-07-14 02:38:00,
2013-07-13 22:44:00,73.9,72.1,29.94,NE,38,0.0,0.0,94,0.00,,,0.35,Wunderground PWS Mod,2013-07-14 02:44:00,
2013-07-13 22:46:00,73.7,71.9,29.92,N/A,-737280,0.0,0.0,94,0.00,,,0.35,Wunderground PWS Mod,2013-07-14 02:46:00,
2013-07-13 22:50:00,73.9,72.1,29.94,NE,36,0.0,0.0,94,0.00,,,0.35,Wunderground PWS Mod,2013-07-14 02:50:00,
2013-07-13 22:56:00,73.9,72.1,29.93,NE,36,0.0,0.0,94,0.00,,,0.35,Wunderground PWS Mod,2013-07-14 02:56:00,
2013-07-13 23:02:00,73.9,72.1,29.93,NE,36,0.0,0.0,94,0.00,,,0.35,Wunderground PWS Mod,2013-07-14 03:02:00,
2013-07-13 23:08:00,73.7,71.9,29.92,NE,36,0.0,0.0,94,0.00,,,0.35,Wunderground PWS Mod,2013-07-14 03:08:00,
2013-07-13 23:14:00,73.7,71.9,29.92,NE,36,0.0,0.0,94,0.00,,,0.35,Wunderground PWS Mod,2013-07-14 03:14:00,
2013-07-13 23:18:00,73.3,71.5,29.94,N/A,-737280,0.0,0.0,94,0.00,,,0.35,Wunderground PWS Mod,2013-07-14 03:18:00,
2013-07-13 23:20:00,73.7,71.9,29.92,NE,36,0.0,0.0,94,0.00,,,0.35,Wunderground PWS Mod,2013-07-14 03:20:00,
2013-07-13 23:26:00,73.5,71.7,29.93,NE,36,0.0,0.0,94,0.00,,,0.35,Wunderground PWS Mod,2013-07-14 03:26:00,
2013-07-13 23:32:00,73.5,71.7,29.93,NE,36,0.0,0.0,94,0.00,,,0.35,Wunderground PWS Mod,2013-07-14 03:32:00,
2013-07-13 23:38:00,73.3,71.5,29.94,NE,36,0.0,0.0,94,0.00,,,0.35,Wunderground PWS Mod,2013-07-14 03:38:00,
2013-07-13 23:44:00,73.3,71.5,29.94,NE,36,0.0,0.0,94,0.00,,,0.35,Wunderground PWS Mod,2013-07-14 03:44:00,
2013-07-13 23:46:00,73.2,71.7,29.94,N/A,-737280,0.0,0.0,95,0.00,,,0.35,Wunderground PWS Mod,2013-07-14 03:46:00,
2013-07-13 23:50:00,73.3,71.5,29.94,NE,36,0.0,0.0,94,0.00,,,0.35,Wunderground PWS Mod,2013-07-14 03:50:00,
2013-07-13 23:56:00,73.3,71.5,29.94,NE,36,0.0,0.0,94,0.00,,,0.35,Wunderground PWS Mod,2013-07-14 03:56:00,